| time (UTC) | temp F | wind direction | speed MPH | gust MPH | rain 1hr in | rain 24hr in | rain mn in | humidity % | barometer mb |
| 20260906091110 | 71 | 133 | 0.0 | 4.0 | 0.00 | 0.00 | 0.00 | 76 | 1020.3 |
| 20260906090144 | 70 | 56 | 0.0 | 4.0 | 0.00 | 0.00 | 0.00 | 78 | 1020.3 |
| 20260906085110 | 69 | 257 | 1.0 | 6.0 | 0.00 | 0.00 | 0.00 | 78 | 1020.1 |
| 20260906084123 | 69 | 251 | 0.0 | 3.0 | 0.00 | 0.00 | 0.00 | 79 | 1020.2 |
| 20260906083110 | 69 | 241 | 1.0 | 3.0 | 0.00 | 0.00 | 0.00 | 79 | 1020.1 |
| 20260906082123 | 68 | 269 | 0.0 | 3.0 | 0.00 | 0.00 | 0.00 | 82 | 1020.1 |
| 20260906081136 | 67 | 6 | 0.0 | 5.0 | 0.00 | 0.00 | 0.00 | 82 | 1020.1 |
| 20260906080145 | 66 | 232 | 0.0 | 5.0 | 0.00 | 0.00 | 0.00 | 85 | 1020.1 |
| 20260906075110 | 65 | 236 | 1.0 | 3.0 | 0.00 | 0.00 | 0.00 | 86 | 1020.2 |
| 20260906074123 | 65 | 227 | 0.0 | 1.0 | 0.00 | 0.00 | 0.00 | 87 | 1020.3 |
| 20260906073136 | 64 | 227 | 0.0 | 3.0 | 0.00 | 0.00 | 0.00 | 88 | 1020.2 |
| 20260906072122 | 63 | 227 | 0.0 | 1.0 | 0.00 | 0.00 | 0.00 | 88 | 1020.3 |
| 20260906071116 | 62 | 227 | 0.0 | 1.0 | 0.00 | 0.00 | 0.00 | 89 | 1020.2 |
| 20260906070119 | 61 | 227 | 0.0 | 2.0 | 0.00 | 0.00 | 0.00 | 89 | 1020.2 |
| 20260906065112 | 61 | 227 | 0.0 | 1.0 | 0.00 | 0.00 | 0.00 | 90 | 1020.1 |
| 20260906064124 | 60 | 227 | 0.0 | 2.0 | 0.00 | 0.00 | 0.00 | 90 | 1020.3 |
| 20260906063138 | 59 | 227 | 0.0 | 1.0 | 0.00 | 0.00 | 0.00 | 91 | 1020.2 |
| 20260906062143 | 59 | 227 | 0.0 | 1.0 | 0.00 | 0.00 | 0.00 | 91 | 1020.3 |
| 20260906061114 | 58 | 227 | 0.0 | 2.0 | 0.00 | 0.00 | 0.00 | 92 | 1020.2 |
| 20260906060120 | 58 | 227 | 0.0 | 1.0 | 0.00 | 0.00 | 0.00 | 92 | 1020.4 |
| 20260906055113 | 57 | 227 | 0.0 | 1.0 | 0.00 | 0.00 | 0.00 | 92 | 1020.4 |
| 20260906054142 | 57 | 227 | 0.0 | 1.0 | 0.00 | 0.00 | 0.00 | 92 | 1020.5 |
| 20260906053133 | 57 | 227 | 0.0 | 0.0 | 0.00 | 0.00 | 0.00 | 92 | 1020.5 |
| 20260906052116 | 57 | 227 | 0.0 | 0.0 | 0.00 | 0.00 | 0.00 | 92 | 1020.5 |
| 20260906051150 | 57 | 227 | 0.0 | 0.0 | 0.00 | 0.00 | 0.00 | 91 | 1020.7 |
| 20260906050122 | 57 | 227 | 0.0 | 0.0 | 0.00 | 0.00 | 0.00 | 91 | 1020.8 |
| 20260906045133 | 57 | 227 | 0.0 | 0.0 | 0.00 | 0.00 | 0.00 | 90 | 1020.9 |
| 20260906044119 | 58 | 227 | 0.0 | 0.0 | 0.00 | 0.00 | 0.00 | 90 | 1021.1 |
| 20260906043133 | 58 | 227 | 0.0 | 0.0 | 0.00 | 0.00 | 0.00 | 90 | 1021.0 |
| 20260906042118 | 58 | 227 | 0.0 | 0.0 | 0.00 | 0.00 | 0.00 | 90 | 1021.3 |
| 20260906041127 | 59 | 227 | 0.0 | 0.0 | 0.00 | 0.00 | 0.00 | 90 | 1021.5 |
| 20260906040119 | 59 | 227 | 0.0 | 0.0 | 0.00 | 0.00 | 0.00 | 90 | 1021.6 |
| 20260906035125 | 59 | 227 | 0.0 | 0.0 | 0.00 | 0.00 | 0.00 | 90 | 1021.6 |
| 20260906034117 | 59 | 227 | 0.0 | 0.0 | 0.00 | 0.00 | 0.00 | 90 | 1021.9 |
| 20260906033149 | 59 | 227 | 0.0 | 0.0 | 0.00 | 0.00 | 0.00 | 90 | 1021.9 |
| 20260906032114 | 59 | 227 | 0.0 | 0.0 | 0.00 | 0.00 | 0.00 | 90 | 1022.0 |
| 20260906031126 | 59 | 227 | 0.0 | 0.0 | 0.00 | 0.00 | 0.00 | 90 | 1022.2 |
| 20260906030120 | 59 | 227 | 0.0 | 0.0 | 0.00 | 0.00 | 0.00 | 90 | 1022.3 |
| 20260906025154 | 58 | 227 | 0.0 | 0.0 | 0.00 | 0.00 | 0.00 | 89 | 1022.5 |
| 20260906024145 | 58 | 227 | 0.0 | 0.0 | 0.00 | 0.00 | 0.00 | 89 | 1022.5 |
| 20260906023129 | 58 | 227 | 0.0 | 0.0 | 0.00 | 0.00 | 0.00 | 89 | 1022.6 |
| 20260906022123 | 58 | 227 | 0.0 | 0.0 | 0.00 | 0.00 | 0.00 | 89 | 1022.7 |
| 20260906021134 | 59 | 227 | 0.0 | 0.0 | 0.00 | 0.00 | 0.00 | 89 | 1022.7 |
| 20260906020125 | 58 | 227 | 0.0 | 0.0 | 0.00 | 0.00 | 0.00 | 89 | 1022.9 |
| 20260906015113 | 58 | 227 | 0.0 | 0.0 | 0.00 | 0.00 | 0.00 | 88 | 1023.0 |
| 20260906014146 | 59 | 227 | 0.0 | 0.0 | 0.00 | 0.00 | 0.00 | 88 | 1022.9 |
| 20260906013111 | 59 | 227 | 0.0 | 0.0 | 0.00 | 0.00 | 0.00 | 88 | 1023.1 |
| 20260906012120 | 59 | 227 | 0.0 | 0.0 | 0.00 | 0.00 | 0.00 | 88 | 1023.2 |
| 20260906011154 | 59 | 227 | 0.0 | 0.0 | 0.00 | 0.00 | 0.00 | 88 | 1023.2 |
| 20260906010119 | 60 | 227 | 0.0 | 0.0 | 0.00 | 0.00 | 0.00 | 88 | 1023.2 |
| 20260906005132 | 60 | 227 | 0.0 | 0.0 | 0.00 | 0.00 | 0.00 | 88 | 1023.3 |
| 20260906004119 | 59 | 227 | 0.0 | 0.0 | 0.00 | 0.00 | 0.00 | 87 | 1023.4 |
| 20260906003116 | 59 | 227 | 0.0 | 0.0 | 0.00 | 0.00 | 0.00 | 87 | 1023.5 |
| 20260906002122 | 59 | 227 | 0.0 | 0.0 | 0.00 | 0.00 | 0.00 | 87 | 1023.7 |
| 20260906001116 | 59 | 227 | 0.0 | 0.0 | 0.00 | 0.00 | 0.00 | 86 | 1023.7 |
| 20260906000123 | 60 | 227 | 0.0 | 0.0 | 0.00 | 0.00 | 0.00 | 86 | 1023.8 |
| 20260905235116 | 60 | 227 | 0.0 | 0.0 | 0.00 | 0.00 | 0.00 | 86 | 1023.7 |
| 20260905234129 | 60 | 227 | 0.0 | 0.0 | 0.00 | 0.00 | 0.00 | 85 | 1023.7 |
| 20260905233131 | 60 | 227 | 0.0 | 0.0 | 0.00 | 0.00 | 0.00 | 85 | 1023.8 |
| 20260905232125 | 60 | 227 | 0.0 | 0.0 | 0.00 | 0.00 | 0.00 | 84 | 1023.8 |
| 20260905231111 | 60 | 227 | 0.0 | 0.0 | 0.00 | 0.00 | 0.00 | 84 | 1024.0 |
| 20260905230124 | 60 | 227 | 0.0 | 0.0 | 0.00 | 0.00 | 0.00 | 84 | 1024.0 |
| 20260905225137 | 60 | 227 | 0.0 | 0.0 | 0.00 | 0.00 | 0.00 | 83 | 1024.3 |
| 20260905224123 | 60 | 227 | 0.0 | 0.0 | 0.00 | 0.00 | 0.00 | 83 | 1024.2 |
| 20260905223116 | 60 | 227 | 0.0 | 0.0 | 0.00 | 0.00 | 0.00 | 83 | 1024.1 |
| 20260905222122 | 60 | 227 | 0.0 | 0.0 | 0.00 | 0.00 | 0.00 | 83 | 1024.1 |
| 20260905221135 | 61 | 227 | 0.0 | 0.0 | 0.00 | 0.00 | 0.00 | 82 | 1024.1 |
| 20260905220146 | 61 | 227 | 0.0 | 0.0 | 0.00 | 0.00 | 0.00 | 82 | 1024.0 |
| 20260905215117 | 61 | 227 | 0.0 | 0.0 | 0.00 | 0.00 | 0.00 | 82 | 1024.0 |
| 20260905214123 | 61 | 227 | 0.0 | 0.0 | 0.00 | 0.00 | 0.00 | 81 | 1024.1 |
| 20260905213116 | 61 | 227 | 0.0 | 1.0 | 0.00 | 0.00 | 0.00 | 81 | 1024.1 |
| 20260905212130 | 61 | 227 | 0.0 | 0.0 | 0.00 | 0.00 | 0.00 | 80 | 1024.1 |
| 20260905211114 | 62 | 227 | 0.0 | 1.0 | 0.00 | 0.00 | 0.00 | 80 | 1024.1 |
| 20260905210128 | 62 | 227 | 0.0 | 1.0 | 0.00 | 0.00 | 0.00 | 79 | 1024.1 |
| 20260905205114 | 62 | 227 | 0.0 | 1.0 | 0.00 | 0.00 | 0.00 | 79 | 1024.1 |
| 20260905204127 | 62 | 227 | 0.0 | 1.0 | 0.00 | 0.00 | 0.00 | 80 | 1024.2 |
| 20260905203113 | 62 | 227 | 0.0 | 1.0 | 0.00 | 0.00 | 0.00 | 80 | 1024.1 |
| 20260905202146 | 62 | 227 | 0.0 | 0.0 | 0.00 | 0.00 | 0.00 | 80 | 1024.0 |
| 20260905201118 | 63 | 227 | 0.0 | 0.0 | 0.00 | 0.00 | 0.00 | 78 | 1023.9 |
| 20260905200124 | 63 | 227 | 0.0 | 1.0 | 0.00 | 0.00 | 0.00 | 78 | 1023.8 |
| 20260905195118 | 63 | 227 | 0.0 | 0.0 | 0.00 | 0.00 | 0.00 | 77 | 1023.9 |
| 20260905194152 | 63 | 227 | 0.0 | 1.0 | 0.00 | 0.00 | 0.00 | 76 | 1023.8 |
| 20260905193117 | 63 | 227 | 0.0 | 1.0 | 0.00 | 0.00 | 0.00 | 76 | 1023.6 |
| 20260905192129 | 63 | 227 | 0.0 | 0.0 | 0.00 | 0.00 | 0.00 | 73 | 1023.7 |
| 20260905191119 | 64 | 227 | 0.0 | 0.0 | 0.00 | 0.00 | 0.00 | 73 | 1023.8 |
| 20260905190131 | 64 | 227 | 0.0 | 0.0 | 0.00 | 0.00 | 0.00 | 74 | 1023.7 |
| 20260905185115 | 65 | 227 | 0.0 | 0.0 | 0.00 | 0.00 | 0.00 | 73 | 1023.6 |
| 20260905184148 | 66 | 227 | 0.0 | 0.0 | 0.00 | 0.00 | 0.00 | 72 | 1023.6 |
| 20260905183119 | 66 | 227 | 0.0 | 0.0 | 0.00 | 0.00 | 0.00 | 72 | 1023.5 |
| 20260905182132 | 67 | 227 | 0.0 | 0.0 | 0.00 | 0.00 | 0.00 | 71 | 1023.5 |
| 20260905181119 | 67 | 227 | 0.0 | 0.0 | 0.00 | 0.00 | 0.00 | 71 | 1023.5 |
| 20260905180153 | 67 | 227 | 0.0 | 1.0 | 0.00 | 0.00 | 0.00 | 70 | 1023.5 |
| 20260905175151 | 68 | 227 | 0.0 | 0.0 | 0.00 | 0.00 | 0.00 | 69 | 1023.4 |
| 20260905174142 | 68 | 227 | 0.0 | 1.0 | 0.00 | 0.00 | 0.00 | 68 | 1023.5 |
| 20260905173127 | 69 | 227 | 0.0 | 1.0 | 0.00 | 0.00 | 0.00 | 65 | 1023.5 |
| 20260905172120 | 69 | 228 | 0.0 | 2.0 | 0.00 | 0.00 | 0.00 | 64 | 1023.4 |
| 20260905171126 | 70 | 228 | 0.0 | 1.0 | 0.00 | 0.00 | 0.00 | 60 | 1023.5 |
| 20260905170121 | 72 | 228 | 0.0 | 2.0 | 0.00 | 0.00 | 0.00 | 57 | 1023.4 |
| 20260905165134 | 74 | 228 | 0.0 | 2.0 | 0.00 | 0.00 | 0.00 | 55 | 1023.5 |
| 20260905164140 | 74 | 228 | 0.0 | 2.0 | 0.00 | 0.00 | 0.00 | 55 | 1023.5 |
| 20260905163117 | 74 | 230 | 0.0 | 3.0 | 0.00 | 0.00 | 0.00 | 55 | 1023.4 |
| 20260905162146 | 74 | 230 | 0.0 | 1.0 | 0.00 | 0.00 | 0.00 | 55 | 1023.4 |
| 20260905161117 | 74 | 230 | 0.0 | 2.0 | 0.00 | 0.00 | 0.00 | 55 | 1023.5 |
| 20260905160121 | 73 | 230 | 0.0 | 1.0 | 0.00 | 0.00 | 0.00 | 55 | 1023.5 |
| 20260905155118 | 73 | 230 | 0.0 | 1.0 | 0.00 | 0.00 | 0.00 | 55 | 1023.5 |
| 20260905154124 | 73 | 230 | 0.0 | 2.0 | 0.00 | 0.00 | 0.00 | 56 | 1023.6 |
| 20260905153117 | 73 | 230 | 0.0 | 3.0 | 0.00 | 0.00 | 0.00 | 56 | 1023.7 |
| 20260905152150 | 74 | 230 | 0.0 | 2.0 | 0.00 | 0.00 | 0.00 | 54 | 1023.8 |
| 20260905151115 | 74 | 230 | 0.0 | 2.0 | 0.00 | 0.00 | 0.00 | 56 | 1023.9 |
| 20260905150128 | 73 | 230 | 0.0 | 2.0 | 0.00 | 0.00 | 0.00 | 55 | 1024.0 |
| 20260905145138 | 73 | 231 | 1.0 | 2.0 | 0.00 | 0.00 | 0.00 | 55 | 1024.1 |
| 20260905144121 | 74 | 230 | 0.0 | 2.0 | 0.00 | 0.00 | 0.00 | 55 | 1024.0 |
| 20260905143113 | 74 | 230 | 0.0 | 2.0 | 0.00 | 0.00 | 0.00 | 54 | 1024.0 |
| 20260905142125 | 74 | 230 | 0.0 | 1.0 | 0.00 | 0.00 | 0.00 | 55 | 1024.0 |
| 20260905141130 | 74 | 231 | 0.0 | 1.0 | 0.00 | 0.00 | 0.00 | 54 | 1024.1 |
| 20260905140124 | 74 | 231 | 0.0 | 2.0 | 0.00 | 0.00 | 0.00 | 55 | 1024.3 |
| 20260905135138 | 74 | 226 | 0.0 | 3.0 | 0.00 | 0.00 | 0.00 | 54 | 1024.5 |
| 20260905133119 | 76 | 226 | 0.0 | 3.0 | 0.00 | 0.00 | 0.00 | 49 | 1024.6 |
| 20260905132132 | 76 | 226 | 0.0 | 1.0 | 0.00 | 0.00 | 0.00 | 47 | 1024.6 |
| 20260905131125 | 75 | 226 | 0.0 | 3.0 | 0.00 | 0.00 | 0.00 | 47 | 1024.4 |
| 20260905130132 | 75 | 226 | 0.0 | 1.0 | 0.00 | 0.00 | 0.00 | 50 | 1024.3 |
| 20260905125145 | 74 | 226 | 0.0 | 3.0 | 0.00 | 0.00 | 0.00 | 48 | 1024.3 |
| 20260905124136 | 73 | 226 | 0.0 | 1.0 | 0.00 | 0.00 | 0.00 | 51 | 1024.3 |
| 20260905123120 | 73 | 226 | 0.0 | 4.0 | 0.00 | 0.00 | 0.00 | 49 | 1024.3 |
| 20260905122113 | 72 | 226 | 0.0 | 3.0 | 0.00 | 0.00 | 0.00 | 52 | 1024.4 |
| 20260905121120 | 72 | 226 | 0.0 | 4.0 | 0.00 | 0.00 | 0.00 | 52 | 1024.4 |
| 20260905120132 | 72 | 226 | 1.0 | 3.0 | 0.00 | 0.00 | 0.00 | 52 | 1024.4 |
| 20260905115119 | 71 | 226 | 0.0 | 1.0 | 0.00 | 0.00 | 0.00 | 52 | 1024.3 |
| 20260905114200 | 72 | 226 | 0.0 | 4.0 | 0.00 | 0.00 | 0.00 | 51 | 1024.4 |
| 20260905113123 | 72 | 226 | 0.0 | 1.0 | 0.00 | 0.00 | 0.00 | 54 | 1024.5 |
| 20260905112136 | 71 | 226 | 1.0 | 2.0 | 0.00 | 0.00 | 0.00 | 52 | 1024.6 |
| 20260905111122 | 70 | 226 | 0.0 | 4.0 | 0.00 | 0.00 | 0.00 | 54 | 1024.5 |
| 20260905110136 | 70 | 226 | 0.0 | 3.0 | 0.00 | 0.00 | 0.00 | 54 | 1024.6 |
| 20260905105123 | 70 | 226 | 0.0 | 2.0 | 0.00 | 0.00 | 0.00 | 54 | 1024.4 |
| 20260905104113 | 70 | 226 | 0.0 | 2.0 | 0.00 | 0.00 | 0.00 | 54 | 1024.4 |
| 20260905103119 | 69 | 226 | 0.0 | 3.0 | 0.00 | 0.00 | 0.00 | 55 | 1024.5 |
| 20260905102111 | 68 | 226 | 0.0 | 1.0 | 0.00 | 0.00 | 0.00 | 57 | 1024.5 |
| 20260905101125 | 67 | 226 | 0.0 | 2.0 | 0.00 | 0.00 | 0.00 | 59 | 1024.6 |
| 20260905100138 | 67 | 226 | 0.0 | 1.0 | 0.00 | 0.00 | 0.00 | 58 | 1024.6 |
| 20260905095150 | 67 | 226 | 0.0 | 3.0 | 0.00 | 0.00 | 0.00 | 58 | 1024.6 |
| 20260905094114 | 65 | 226 | 0.0 | 1.0 | 0.00 | 0.00 | 0.00 | 64 | 1024.6 |
| 20260905093126 | 65 | 226 | 1.0 | 3.0 | 0.00 | 0.00 | 0.00 | 62 | 1024.7 |
| 20260905092139 | 65 | 226 | 0.0 | 1.0 | 0.00 | 0.00 | 0.00 | 64 | 1024.6 |